Regional Weather Roundup
Issued by NWS Kansas City/Pleasant Hill, MO

Home | Current Version | Previous Version | Graphics & Text | Print | Product List | Glossary Off
Versions: 1 2 3 4 5 6 7 8 9 10 11 12 13 14 15 16 17 18 19 20 21 22 23 24 25 26 27

000
ASUS43 KEAX 251110
RWREAX

WEATHER ROUNDUP FOR EASTERN KANSAS AND NORTHWEST MISSOURI
NATIONAL WEATHER SERVICE KANSAS CITY/PLEASANT HILL MO
600 AM CDT MON SEP 25 2017

KSZ040-057-103>105-MOZ028-029-037-043-251200-
...KANSAS CITY METROPOLITAN AREA...

CITY           SKY/WX    TMP DP  RH WIND       PRES   REMARKS
K.C. INTL      CLEAR     67  64  90 S7        29.92F
K.C. DOWNTOWN  CLEAR     72  65  78 S5        29.92S
LEES SUMMIT    CLEAR     68  64  87 S8        29.95R
OLATHE - IXD   CLEAR     68  64  87 S7        29.93F
OLATHE - OJC   CLEAR     66  65  96 S5        29.93F
LAWRENCE       CLEAR     68  66  93 E5        29.91F

$$

MOZ001>008-011>017-020>025-030>033-038>040-044>046-053-054-251200-
...NORTHERN AND CENTRAL MISSOURI...

CITY           SKY/WX    TMP DP  RH WIND       PRES   REMARKS
ST. JOSEPH     CLEAR     69  66  90 SE5       29.91S
MOSBY            N/A     64  63  94 CALM      29.93S
WARRENSBURG    CLEAR     64  61  88 SE5       29.94S
WHITEMAN AFB   CLEAR     65  65 100 S5        29.95R
CLINTON        CLEAR     64  64 100 CALM      29.96R
SEDALIA        CLOUDY    71  67  87 S8        29.97R
WARSAW         NOT AVBL
CHILLICOTHE      N/A     66  66 100 CALM      29.96R
KIRKSVILLE     PTCLDY    67  63  87 S5        29.97S

$$

MOZ041-047>049-056>058-063>065-088>090-097-251200-
...EASTERN AND SOUTHERN MISSOURI...

CITY           SKY/WX    TMP DP  RH WIND       PRES   REMARKS
ST. LOUIS INTL CLEAR     71  65  81 CALM      30.00R
SPIRIT OF STL  CLEAR     64  64 100 CALM      29.99R
COLUMBIA       CLEAR     67  64  90 S7        29.98R
JEFFERSON CITY CLEAR     67  63  87 SE6       29.97R
ROLLA          CLEAR     69  64  84 S9        30.01R
OSAGE BEACH    CLEAR     66  64  93 SE3       29.99R
SPRINGFIELD    CLEAR     67  65  93 S9        29.98R
BRANSON        CLEAR     66  64  94 CALM      30.01R
JOPLIN         CLEAR     70  65  84 SE8       29.95S
WEST PLAINS    CLEAR     62  60  93 CALM      30.03R

$$

IAZ060-094-KSZ022-034>040-054-083-096-NEZ052-066-093-251200-
...KANSAS...SOUTHEAST NEBRASKA AND IOWA...

CITY           SKY/WX    TMP DP  RH WIND       PRES   REMARKS
TOPEKA         CLEAR     70  67  90 E5        29.90F
MANHATTAN      MOCLDY    73  65  75 SW5       29.88S
EMPORIA        CLEAR     68  64  87 SE10      29.91S
CHANUTE        CLEAR     68  65  90 SE6       29.93S
WICHITA        MOCLDY    70  66  87 S9        29.88S
OMAHA          PTCLDY    62  58  86 SE3       29.92F
LINCOLN        CLOUDY    58  56  93 N13       29.95S
FALLS CITY     CLEAR     66  64  93 SE5       29.89F
LAMONI         PTCLDY    67  64  90 SE6       29.94R
DES MOINES     MOCLDY    70  64  81 CALM      29.92S

$$





USA.gov is the U.S. government's official web portal to all federal, state and local government web resources and services.